Tracking 35274 objects as of 12-Sep-2026
HD Live streaming from Space Station
objects crossing your sky now

SPACEBEE-64


SPACEBEE-64 is no longer on orbit


NORAD ID: 48627
Int'l Code: 2021-006ET
Launch date: January 24, 2021
Source: United States (US)
Launch site: AIR FORCE EASTERN TEST RANGE (AFETR)
Decay date: 2023-04-01
Your satellite tracking list
Your tracking list is empty




NASA's NSSDC Master Catalog

Two Line Element Set (TLE):
1 48627U 21006ET  23091.67013592  .18513959  24015-5  11287-2 0  9993
2 48627  97.1322 139.1091 0012715 256.4031 103.5854 16.40704536121695
Source of the keplerian elements: AFSPC